[[{"header":{"parameterUnit":"m.s-1","parameterCategory":1,"la1":30.2991,"la2":30.254,"lo1":-89.0895,"lo2":-89.0444,"dy":0.0017,"dx":0.0017,"nx":28,"ny":28,"refTime":"2024-02-04T03:00:00:Z","depth":0,"parameterNumber":2,"parameterNumberName":"U-component_of_WINDS"},"data":[0,0,0,0,0,0,0,0,0,0,0,0,0,0,0,0,0,0,0,0,0,0,0,0,0,0,0,0,0,0,0,0,0,0,0,0,0,0,0,0,0,0,0,0,0,0,0,0,0,0,0,0,0,0,0,0,0,0,2.09,2.0899,0,2.0802,2.0801,2.08,2.07,2.0699,2.0697,2.0696,2.0595,2.0594,2.0593,0,0,0,0,0,0,0,0,0,0,0,0,0,2.1004,2.1002,2.0901,2.0899,2.0898,2.0802,2.0801,2.0799,2.07,2.0698,2.0697,2.0695,2.0596,2.0594,2.0592,0,0,0,0,0,0,0,0,0,0,0,0,0,2.0937,2.1002,2.0901,2.0837,2.083,2.0802,2.0801,2.0799,2.07,2.0698,2.0696,2.0695,2.0596,2.0594,2.0592,2.0619,0,0,2.0586,2.0585,0,0,0,0,0,0,0,0,2.0941,2.0934,2.0848,2.0841,2.0834,2.0761,2.08,2.0739,2.0701,2.075,2.0696,2.0694,2.0652,2.0645,2.0631,2.0615,2.061,2.0585,2.0584,2.0583,2.0583,0,0,0,0,0,0,0,2.0946,2.0937,2.0861,2.0846,2.0838,2.0814,2.0802,2.0788,2.0714,2.0745,2.0738,2.0728,2.0648,2.0634,2.0628,2.0609,2.0586,2.0584,2.0582,2.0581,2.0613,2.0615,0,0,0,0,0,0,2.096,2.0942,2.0865,2.0859,2.0884,2.0813,2.08,2.0786,2.0713,2.07,2.0729,2.0723,2.0638,2.0631,2.0624,2.0654,2.0583,2.0581,2.058,2.0611,2.0614,2.0616,0,0,0,0,0,0,2.0963,2.0954,2.0869,2.0898,2.0885,2.0814,2.0799,2.0786,2.0771,2.0701,2.0688,2.0728,2.0636,2.0627,2.0622,2.0649,2.058,2.0578,2.0608,2.0612,2.0615,2.0714,0,0,0,0,0,0,2.0966,2.0956,2.0965,2.0899,2.0884,2.0868,2.0801,2.0785,2.0768,2.0759,2.0697,2.0685,2.0634,2.0626,2.062,2.0645,2.0577,2.0606,2.061,2.0614,2.0708,2.072,2.073,0,0,0,0,0,2.097,2.0996,2.0966,2.0957,2.0894,2.087,2.0861,2.0803,2.077,2.078,2.0735,2.0687,2.0647,2.0626,2.0619,2.0644,2.0604,2.0609,2.0613,2.0703,2.0717,2.073,0,0,0,0,0,0,2.1067,2.0986,2.0952,2.0957,2.0922,2.0853,2.0863,2.082,2.0792,2.0785,2.0713,2.07,2.0704,2.0672,2.0651,2.0668,2.0619,2.0622,2.0689,2.0702,2.0713,2.0723,2.0575,0,0,0,0,0,2.1089,2.1076,2.1006,2.1017,2.1001,2.0936,2.0922,2.088,2.084,2.0825,2.0779,2.0742,2.0722,2.0709,2.0686,2.0701,2.0688,2.0715,2.0726,2.0736,2.0741,2.075,2.0762,2.0632,2.0631,2.0631,0,0,2.1135,2.1089,2.1085,2.1036,2.1003,2.0992,2.0923,2.0913,2.0905,2.0823,2.0817,2.0782,2.0736,2.0742,2.0742,2.0716,2.0774,2.0742,2.075,2.075,2.0756,2.0769,2.078,2.0635,2.0634,2.0634,0,0,2.1213,2.1175,2.1182,2.1151,2.1102,2.1059,2.1061,2.0999,2.0973,2.0965,2.0905,2.0893,2.0858,2.0829,2.0809,2.0878,2.0833,2.0872,2.0932,2.0941,2.0952,2.0961,2.0989,2.0999,2.0876,2.0876,2.0876,0,2.1276,2.1256,2.1191,2.1187,2.1168,2.1093,2.1101,2.1073,2.102,2.1009,2.0979,2.0936,2.0899,2.0899,2.0917,2.0902,2.0904,2.088,2.0955,2.0964,2.0971,2.0997,2.1007,2.0882,2.0881,2.088,2.088,0,2.1338,2.1325,2.1337,2.1288,2.127,2.1272,2.1208,2.1198,2.1157,2.1117,2.1112,2.1065,2.1033,2.1029,2.0988,2.1024,2.1009,2.0969,2.0918,2.099,2.1014,2.1023,2.0889,2.0887,2.0886,2.0884,0,0,2.1476,2.1392,2.1398,2.1376,2.1317,2.1306,2.1305,2.1273,2.1268,2.1233,2.1232,2.1204,2.1167,2.1145,2.11,2.1108,2.117,2.1067,2.1065,2.1091,2.1211,2.1245,2.1257,2.1139,2.114,2.1142,2.1216,0,2.1547,2.154,2.1483,2.1493,2.1483,2.1411,2.141,2.1374,2.1337,2.1323,2.128,2.1264,2.1214,2.1201,2.1205,2.1162,2.1194,2.1155,2.114,2.114,2.1158,2.1269,2.1304,2.1377,2.1224,2.1226,2.1227,0,2.1629,2.1601,2.1611,2.1554,2.1547,2.1548,2.1516,2.1502,2.1461,2.1433,2.1409,2.1359,2.1355,2.1306,2.13,2.1275,2.1265,2.1243,2.1244,2.1244,2.1191,2.1276,2.1398,2.1411,2.124,2.1239,2.1238,0,2.1734,2.1698,2.17,2.1683,2.1616,2.1618,2.159,2.1546,2.1532,2.1504,2.1494,2.1465,2.1451,2.143,2.1374,2.1343,2.1377,2.1321,2.1356,2.1358,2.137,2.1371,2.1497,2.1356,2.1356,2.1356,2.1356,0,2.1822,2.1832,2.1747,2.1749,2.1759,2.1692,2.1703,2.1668,2.163,2.1625,2.1559,2.1556,2.1481,2.1469,2.1425,2.143,2.1422,2.1401,2.139,2.141,2.1413,2.1405,2.14,2.1359,2.1358,2.1358,2.1357,0,2.1942,2.1885,2.1884,2.182,2.1805,2.1815,2.1761,2.1761,2.1719,2.1713,2.1708,2.1643,2.1626,2.1567,2.1535,2.1505,2.1525,2.1501,2.154,2.1534,2.1574,2.1573,2.1703,2.1718,2.1564,2.1566,2.1567,0,2.2004,2.201,2.1948,2.194,2.1916,2.1903,2.1888,2.1823,2.181,2.1765,2.1771,2.1748,2.1728,2.1704,2.1654,2.163,2.1607,2.1655,2.1604,2.1624,2.1613,2.1616,2.1618,2.1667,2.1669,2.1671,2.1672,0,2.2122,2.2093,2.2075,2.2048,2.2033,2.2008,2.1979,2.1976,2.1903,2.1892,2.1875,2.1859,2.1827,2.1807,2.1775,2.1746,2.1699,2.1688,2.1696,2.1718,2.1743,2.1734,2.1575,2.1686,2.1685,2.1684,2.1683,2.1683,2.2217,2.2221,2.2179,2.2161,2.2133,2.2108,2.2106,2.2064,2.2048,2.2018,2.1979,2.1967,2.1927,2.1879,2.1854,2.1845,2.1818,2.1828,2.1831,2.1836,2.1847,2.174,2.1838,2.1837,2.1837,2.1836,2.1836,0,2.2335,2.2305,2.2289,2.2252,2.2239,2.2193,2.2159,2.2152,2.2142,2.2108,2.209,2.2071,2.2051,2.2,2.1976,2.1978,2.1956,2.1975,2.1976,2.1971,2.187,2.1868,2.1993,2.1993,2.1993,2.1993,2.1993,2.1993,2.2395,2.2401,2.2368,2.2359,2.2327,2.2316,2.2301,2.2279,2.2252,2.2234,2.2218,2.2184,2.2144,2.2117,2.2098,2.2083,2.2079,2.2106,2.2085,2.1993,2.1978,2.1964,2.1962,2.2105,2.2105,2.2188,2.2188,2.2189]},{"header":{"parameterUnit":"m.s-1","parameterCategory":1,"la1":30.2991,"la2":30.254,"lo1":-89.0895,"lo2":-89.0444,"dy":0.0017,"dx":0.0017,"nx":28,"ny":28,"refTime":"2024-02-04T03:00:00:Z","depth":0,"parameterNumber":3,"parameterNumberName":"V-component_of_WINDS"},"data":[0,0,0,0,0,0,0,0,0,0,0,0,0,0,0,0,0,0,0,0,0,0,0,0,0,0,0,0,0,0,0,0,0,0,0,0,0,0,0,0,0,0,0,0,0,0,0,0,0,0,0,0,0,0,0,0,0,0,-3.2992,-3.2993,0,-3.3011,-3.3011,-3.3011,-3.3,-3.3,-3.2999,-3.2999,-3.3015,-3.3016,-3.3017,0,0,0,0,0,0,0,0,0,0,0,0,0,-3.2947,-3.2947,-3.2992,-3.2993,-3.2993,-3.3011,-3.3011,-3.3011,-3.3,-3.3,-3.2999,-3.2998,-3.3015,-3.3016,-3.3017,0,0,0,0,0,0,0,0,0,0,0,0,0,-3.2966,-3.2948,-3.2992,-3.299,-3.2989,-3.3011,-3.3011,-3.3011,-3.3,-3.3,-3.2999,-3.2998,-3.3015,-3.3016,-3.3017,-3.3042,0,0,-3.3022,-3.3022,0,0,0,0,0,0,0,0,-3.2965,-3.2968,-3.299,-3.299,-3.299,-3.3002,-3.3001,-3.3022,-3.3001,-3.2996,-3.2999,-3.2998,-3.3012,-3.3013,-3.3018,-3.3043,-3.3043,-3.3022,-3.3023,-3.3023,-3.3024,0,0,0,0,0,0,0,-3.2963,-3.2967,-3.3,-3.299,-3.299,-3.2987,-3.2989,-3.3005,-3.3008,-3.2996,-3.2996,-3.2998,-3.3011,-3.3017,-3.3019,-3.3044,-3.3022,-3.3023,-3.3024,-3.3024,-3.3091,-3.3091,0,0,0,0,0,0,-3.2963,-3.2966,-3.2999,-3.3,-3.2975,-3.2989,-3.2991,-3.2999,-3.3008,-3.3008,-3.2999,-3.2998,-3.3015,-3.3017,-3.3019,-3.3049,-3.3023,-3.3025,-3.3025,-3.309,-3.3091,-3.3092,0,0,0,0,0,0,-3.2962,-3.2966,-3.2998,-3.2983,-3.2987,-3.299,-3.3,-3.3,-3.3005,-3.301,-3.301,-3.3004,-3.3014,-3.3017,-3.3037,-3.3049,-3.3025,-3.3027,-3.3089,-3.309,-3.3091,-3.3108,0,0,0,0,0,0,-3.296,-3.2965,-3.2975,-3.2983,-3.2988,-3.3016,-3.3001,-3.3001,-3.3008,-3.3007,-3.3015,-3.3015,-3.3014,-3.3035,-3.3038,-3.3051,-3.3028,-3.3087,-3.3089,-3.3091,-3.3107,-3.311,-3.3113,0,0,0,0,0,-3.2959,-3.2978,-3.2975,-3.2979,-3.2999,-3.3017,-3.3019,-3.3018,-3.3009,-3.3019,-3.3022,-3.3015,-3.3048,-3.3037,-3.3041,-3.3054,-3.3087,-3.3089,-3.3091,-3.3105,-3.3109,-3.3113,0,0,0,0,0,0,-3.2969,-3.2979,-3.2976,-3.2998,-3.3007,-3.3015,-3.3026,-3.3022,-3.3033,-3.3031,-3.3029,-3.3031,-3.3051,-3.3055,-3.3042,-3.3079,-3.3066,-3.3069,-3.3075,-3.308,-3.3083,-3.3081,-3.3029,0,0,0,0,0,-3.2975,-3.2988,-3.2996,-3.3015,-3.3019,-3.3022,-3.303,-3.3029,-3.3037,-3.304,-3.3044,-3.3052,-3.3065,-3.3072,-3.3084,-3.3108,-3.3109,-3.3119,-3.3122,-3.3125,-3.3127,-3.3141,-3.3145,-3.3098,-3.3098,-3.3098,0,0,-3.2985,-3.2992,-3.3,-3.3017,-3.3024,-3.3038,-3.3025,-3.304,-3.305,-3.3042,-3.3061,-3.3065,-3.3074,-3.3096,-3.3106,-3.3099,-3.314,-3.3127,-3.3129,-3.313,-3.3143,-3.3147,-3.3151,-3.31,-3.31,-3.3099,0,0,-3.3011,-3.3017,-3.3035,-3.3042,-3.3053,-3.3055,-3.3059,-3.3068,-3.3071,-3.309,-3.3084,-3.3097,-3.3118,-3.3124,-3.3131,-3.3162,-3.3156,-3.3166,-3.3182,-3.3196,-3.3199,-3.3202,-3.3214,-3.3218,-3.3168,-3.3168,-3.3168,0,-3.3022,-3.3043,-3.3044,-3.306,-3.3068,-3.3063,-3.308,-3.3087,-3.31,-3.3106,-3.3099,-3.3126,-3.3132,-3.3156,-3.3164,-3.3169,-3.3174,-3.3164,-3.3199,-3.3202,-3.3205,-3.3216,-3.322,-3.3169,-3.3169,-3.3169,-3.3169,0,-3.3056,-3.3071,-3.3084,-3.3099,-3.3108,-3.3125,-3.3128,-3.3138,-3.3136,-3.3139,-3.316,-3.3167,-3.318,-3.3186,-3.3184,-3.321,-3.3206,-3.3199,-3.3186,-3.3211,-3.322,-3.3225,-3.3171,-3.3171,-3.317,-3.317,0,0,-3.3086,-3.3104,-3.3108,-3.3115,-3.3128,-3.3139,-3.3156,-3.3171,-3.3179,-3.3189,-3.3203,-3.3222,-3.3217,-3.3224,-3.3223,-3.3235,-3.326,-3.3227,-3.3227,-3.3232,-3.3289,-3.3294,-3.3299,-3.3257,-3.3258,-3.3258,-3.3289,0,-3.3113,-3.3143,-3.3145,-3.3173,-3.3187,-3.3184,-3.3199,-3.3208,-3.3212,-3.3225,-3.3229,-3.3243,-3.3234,-3.3238,-3.325,-3.3254,-3.3271,-3.3252,-3.3269,-3.327,-3.3266,-3.3304,-3.3308,-3.3336,-3.3293,-3.3293,-3.3294,0,-3.3147,-3.316,-3.3189,-3.3201,-3.3207,-3.3221,-3.3235,-3.3247,-3.3258,-3.326,-3.327,-3.3268,-3.3286,-3.3273,-3.3297,-3.3285,-3.3292,-3.3295,-3.3297,-3.3297,-3.3282,-3.3305,-3.3345,-3.3349,-3.33,-3.3299,-3.3299,0,-3.3165,-3.319,-3.3211,-3.3218,-3.3233,-3.3242,-3.3249,-3.3259,-3.3268,-3.3281,-3.3287,-3.3301,-3.3308,-3.3319,-3.3321,-3.3312,-3.3346,-3.3333,-3.3347,-3.3347,-3.3353,-3.3353,-3.3395,-3.336,-3.336,-3.336,-3.336,0,-3.3194,-3.3211,-3.322,-3.3233,-3.3253,-3.3256,-3.3276,-3.3282,-3.3292,-3.3306,-3.3304,-3.3317,-3.332,-3.3333,-3.3335,-3.3355,-3.3359,-3.3361,-3.3361,-3.336,-3.336,-3.3364,-3.3362,-3.3361,-3.336,-3.336,-3.336,0,-3.3217,-3.3224,-3.3246,-3.326,-3.3264,-3.3278,-3.3289,-3.3302,-3.3307,-3.3324,-3.3329,-3.3336,-3.3352,-3.3356,-3.3375,-3.3376,-3.34,-3.3398,-3.3396,-3.3396,-3.341,-3.3408,-3.3455,-3.3462,-3.3423,-3.3424,-3.3424,0,-3.3234,-3.3248,-3.3264,-3.3274,-3.3281,-3.3297,-3.3307,-3.3311,-3.3322,-3.3337,-3.3347,-3.3364,-3.3377,-3.3403,-3.3409,-3.3424,-3.3422,-3.3438,-3.3424,-3.3424,-3.3422,-3.3421,-3.3422,-3.344,-3.344,-3.3441,-3.3441,0,-3.3264,-3.3267,-3.3282,-3.3298,-3.3311,-3.3324,-3.3336,-3.3344,-3.335,-3.3362,-3.3379,-3.339,-3.341,-3.3426,-3.3442,-3.3448,-3.3446,-3.3446,-3.345,-3.3449,-3.3447,-3.3448,-3.3403,-3.3444,-3.3444,-3.3443,-3.3443,-3.3443,-3.3284,-3.3297,-3.3311,-3.3328,-3.3338,-3.335,-3.3363,-3.3371,-3.3386,-3.3403,-3.3405,-3.3424,-3.3436,-3.3457,-3.3465,-3.3479,-3.3474,-3.348,-3.3481,-3.3483,-3.3484,-3.3446,-3.3482,-3.3482,-3.3482,-3.3482,-3.3482,0,-3.3313,-3.3322,-3.3338,-3.3357,-3.3371,-3.3369,-3.3384,-3.3395,-3.3412,-3.3424,-3.3438,-3.3459,-3.3475,-3.3484,-3.35,-3.351,-3.351,-3.3514,-3.3513,-3.3515,-3.3487,-3.3482,-3.3515,-3.3515,-3.3515,-3.3515,-3.3515,-3.3515,-3.3329,-3.3351,-3.3357,-3.3384,-3.3394,-3.3413,-3.3421,-3.3433,-3.3443,-3.3467,-3.3481,-3.3487,-3.3499,-3.3516,-3.3531,-3.3533,-3.3539,-3.3544,-3.3546,-3.352,-3.3516,-3.3513,-3.3508,-3.3546,-3.3546,-3.3572,-3.3572,-3.3573]}]]